Tracking 18840 objects as of 20-November-2017
HD Live streaming from Space Station
objects crossing your sky now

FENGYUN 1C DEB

Track FENGYUN 1C DEB now!
10-day predictions


NORAD ID: 30641
Int'l Code: 1999-025ANY
Perigee: 570.1 km
Apogee: 819.8 km
Inclination: 99.0 °
Period: 98.5 minutes
Semi major axis: 7065 km
RCS: 0.0235 m2 (small)
Launch date: May 10, 1999
Source: People's Republic of China (PRC)
Launch site: Taiyaun Space Center, China (TSC)

Note: This is SATELLITE DEBRIS
aabbcc
Your satellite tracking list
Your tracking list is empty




NASA's NSSDC Master Catalog

Two Line Element Set (TLE):
1 30641U 99025ANY 17323.48838007 +.00000351 +00000-0 +67545-4 0  9993
2 30641 098.9994 305.4478 0176682 195.7295 286.3106 14.61664863574044
Source of the keplerian elements: AFSPC